Location: Newark
(50.6972°N, 6.6253°E)
Time: 11:36:23
(UTC+00:00)

Envisat - Visible Passes

Search period start: 14 November 2019 00:00
Search period end: 24 November 2019 00:00
Orbit: 764 x 766 km, 98.1° (Epoch: 14 November)

Date Brightness Start Highest point End Pass type
(mag) Time Alt. Az. Time Alt. Az. Time Alt. Az.
14 Nov 5.1 05:45:40 10° NNE 05:50:11 31° E 05:54:41 10° SSE visible
14 Nov 2.9 17:04:50 10° SSE 17:09:52 66° ENE 17:14:55 10° N visible
14 Nov 5.5 18:45:37 10° SW 18:49:22 20° W 18:53:07 10° NW visible
15 Nov 6.0 05:09:54 10° NE 05:13:01 16° E 05:16:06 10° SE visible
15 Nov 3.6 16:28:43 10° SE 16:33:16 35° ENE 16:37:51 10° N visible
15 Nov 4.4 18:07:30 10° SSW 18:12:15 39° W 18:17:02 10° NNW visible
16 Nov 4.1 06:10:53 10° NNE 06:15:51 50° E 06:20:47 10° S visible
16 Nov 3.1 17:30:15 10° S 17:35:21 79° WSW 17:40:28 10° NNW visible
16 Nov 6.1 19:13:08 10° WSW 19:15:14 12° W 19:17:20 10° WNW visible
17 Nov 5.5 05:34:35 10° NE 05:38:49 26° E 05:43:02 10° SSE visible
17 Nov 3.1 16:53:41 10° SE 16:58:37 54° ENE 17:03:35 10° N visible
17 Nov 5.2 18:33:50 10° SSW 18:37:58 25° W 18:42:08 10° NW visible
18 Nov 6.2 04:59:15 10° ENE 05:01:34 13° E 05:03:53 10° ESE visible
18 Nov 3.8 16:17:46 10° ESE 16:22:05 29° ENE 16:26:26 10° N visible
18 Nov 4.0 17:56:01 10° S 18:00:55 48° W 18:05:52 10° NNW visible
19 Nov 4.5 05:59:42 10° NNE 06:04:32 41° E 06:09:19 10° SSE visible
19 Nov 2.9 17:18:59 10° SSE 17:24:04 86° ENE 17:29:11 10° NNW visible
19 Nov 5.9 19:00:50 10° WSW 19:03:47 15° W 19:06:46 10° NW visible
20 Nov 5.8 05:23:34 10° NE 05:27:26 21° E 05:31:15 10° SE visible
20 Nov 3.3 16:42:36 10° SE 16:47:24 45° ENE 16:52:13 10° N visible
20 Nov 4.9 18:22:09 10° SSW 18:26:35 30° W 18:31:04 10° NNW visible
21 Nov 6.5 04:49:24 10° ENE 04:50:07 10° E 04:50:48 10° E visible
21 Nov 3.6 17:44:35 10° S 17:49:35 59° W 17:54:39 10° NNW visible
22 Nov 4.9 05:48:33 10° NNE 05:53:11 34° E 05:57:46 10° SSE visible
22 Nov 2.9 17:07:45 10° SSE 17:12:48 71° ENE 17:17:53 10° N visible
22 Nov 5.6 18:48:49 10° SW 18:52:22 19° W 18:55:56 10° NW visible
23 Nov 5.9 05:12:40 10° NE 05:16:01 17° E 05:19:21 10° SE visible
23 Nov 3.5 16:31:33 10° SE 16:36:11 37° ENE 16:40:51 10° N visible
23 Nov 4.5 18:10:33 10° SSW 18:15:13 37° W 18:19:56 10° NNW visible
